Back to catalog

FENGYUN 1C DEB

AliveSSO
NORAD 31929·DEBRIS·🇨🇳 China

Launched May 10, 1999 from Taiyuan Satellite Launch Center

Loading…

Next Passes (next 24 hours)

TLE

AgingSource: Space-Track

Epoch: Sep 9, 2026, 15:41 UTC

1 31929U 99025CME 26252.65347863  .00000590  00000-0  21446-3 0  9992
2 31929  98.8263  32.5721 0072281 337.4941  22.3078 14.35631386745326

Track FENGYUN 1C DEB in real time with AllMySat

Download on the App Store